User: anonymous   Login
Location: Biharia
(46.4333°N, 22.8000°E)
Time: 04:45:49
(UTC+00:00)
Language:

Cosmos 839 Rocket - Orbit

View from above orbital plane
View from above orbital plane
View from above satellite
View from above satellite

Ground track
Ground track

The orbit data is extracted from the following two-line orbital elements,

1 09013U 76067B   22021.57475469 -.00000055  00000-0 -19020-5 0  9992
2 09013  65.8667 345.6562 0708591 135.8424 230.1428 12.35346074 53734
Epoch (UTC): 21 January 2022 13:47:38
Eccentricity: 0.0708591
inclination: 65.8667°
perigee height: 966 km
apogee height: 2086 km
right ascension of ascending node: 345.6562°
argument of perigee: 135.8424°
revolutions per day: 12.35346074
mean anomaly at epoch: 230.1428°
orbit number at epoch: 5373

The dashed part of the orbit path shows where the satellite is in the earth's shadow,  

DLR